Time,TemperatureF,DewpointF,PressureIn,WindDirection,WindDirectionDegrees,WindSpeedMPH,WindSpeedGustMPH,Humidity,HourlyPrecipIn,Conditions,Clouds,dailyrainin,SoftwareType,DateUTC
2013-09-05 00:04:00,69.6,59.7,30.12,SE,135,0.0,0.0,71,0.00,,,0.00,meteohub,2013-09-05 05:04:00,
2013-09-05 00:09:00,69.4,59.5,30.12,SE,135,0.0,0.0,71,0.00,,,0.00,meteohub,2013-09-05 05:09:00,
2013-09-05 00:14:00,69.4,59.5,30.12,SE,135,0.0,0.0,71,0.00,,,0.00,meteohub,2013-09-05 05:14:00,
2013-09-05 00:19:00,69.3,59.5,30.12,SE,134,0.0,0.0,71,0.00,,,0.00,meteohub,2013-09-05 05:19:00,
2013-09-05 00:24:00,69.3,59.5,30.12,SE,135,0.0,0.0,71,0.00,,,0.00,meteohub,2013-09-05 05:24:00,
2013-09-05 00:29:00,69.1,59.4,30.12,SE,135,0.0,0.0,71,0.00,,,0.00,meteohub,2013-09-05 05:29:00,
2013-09-05 00:34:00,68.9,58.6,30.12,SE,135,0.0,0.0,70,0.00,,,0.00,meteohub,2013-09-05 05:34:00,
2013-09-05 00:39:00,68.7,58.5,30.12,SE,135,0.0,0.0,70,0.00,,,0.00,meteohub,2013-09-05 05:39:00,
2013-09-05 00:44:00,68.7,58.5,30.12,SE,134,0.0,0.0,70,0.00,,,0.00,meteohub,2013-09-05 05:44:00,
2013-09-05 00:50:00,68.7,58.5,30.12,SE,134,0.0,0.0,70,0.00,,,0.00,meteohub,2013-09-05 05:50:00,
2013-09-05 00:55:00,68.5,57.9,30.12,SE,135,0.0,0.0,69,0.00,,,0.00,meteohub,2013-09-05 05:55:00,
2013-09-05 01:00:00,68.5,57.9,30.12,SE,135,0.0,0.0,69,0.00,,,0.00,meteohub,2013-09-05 06:00:00,
2013-09-05 01:05:00,68.5,57.9,30.12,SE,134,0.0,0.0,69,0.00,,,0.00,meteohub,2013-09-05 06:05:00,
2013-09-05 01:10:00,68.4,57.7,30.12,SE,134,0.0,0.0,69,0.00,,,0.00,meteohub,2013-09-05 06:10:00,
2013-09-05 01:15:00,68.4,57.7,30.12,SSE,163,0.0,1.0,69,0.00,,,0.00,meteohub,2013-09-05 06:15:00,
2013-09-05 01:20:00,68.4,57.7,30.12,SSE,163,0.0,1.0,69,0.00,,,0.00,meteohub,2013-09-05 06:20:00,
2013-09-05 01:25:00,68.2,57.6,30.12,SSE,163,0.0,1.0,69,0.00,,,0.00,meteohub,2013-09-05 06:25:00,
2013-09-05 01:30:00,68.2,57.6,30.12,SSE,163,0.0,0.0,69,0.00,,,0.00,meteohub,2013-09-05 06:30:00,
2013-09-05 01:35:00,68.0,57.4,30.12,SSE,163,0.0,0.0,69,0.00,,,0.00,meteohub,2013-09-05 06:35:00,
2013-09-05 01:40:00,67.8,57.2,30.12,SSE,163,0.0,0.0,69,0.00,,,0.00,meteohub,2013-09-05 06:40:00,
2013-09-05 01:45:00,67.8,57.2,30.12,SSE,163,0.0,0.0,69,0.00,,,0.00,meteohub,2013-09-05 06:45:00,
2013-09-05 01:51:00,67.6,57.0,30.12,SSE,163,0.0,1.0,69,0.00,,,0.00,meteohub,2013-09-05 06:51:00,
2013-09-05 01:56:00,67.6,57.0,30.12,SSE,163,0.0,1.0,69,0.00,,,0.00,meteohub,2013-09-05 06:56:00,
2013-09-05 02:01:00,67.5,57.0,30.12,SSE,163,0.0,1.0,69,0.00,,,0.00,meteohub,2013-09-05 07:01:00,
2013-09-05 02:06:00,67.5,57.0,30.12,SSE,163,0.0,0.0,69,0.00,,,0.00,meteohub,2013-09-05 07:06:00,
2013-09-05 02:11:00,67.5,57.0,30.11,SSE,163,0.0,0.0,69,0.00,,,0.00,meteohub,2013-09-05 07:11:00,
2013-09-05 02:16:00,67.3,57.2,30.12,SSE,163,0.0,0.0,70,0.00,,,0.00,meteohub,2013-09-05 07:16:00,
2013-09-05 02:21:00,67.3,57.2,30.12,SSE,163,0.0,0.0,70,0.00,,,0.00,meteohub,2013-09-05 07:21:00,
2013-09-05 02:26:00,67.1,57.0,30.12,SSE,163,0.0,0.0,70,0.00,,,0.00,meteohub,2013-09-05 07:26:00,
2013-09-05 02:31:00,66.9,56.8,30.12,SSE,163,0.0,0.0,70,0.00,,,0.00,meteohub,2013-09-05 07:31:00,
2013-09-05 02:36:00,66.9,56.8,30.12,SSE,163,0.0,0.0,70,0.00,,,0.00,meteohub,2013-09-05 07:36:00,
2013-09-05 02:41:00,66.7,56.7,30.12,SSE,163,0.0,0.0,70,0.00,,,0.00,meteohub,2013-09-05 07:41:00,
2013-09-05 02:46:00,66.7,56.7,30.12,SSE,163,0.0,0.0,70,0.00,,,0.00,meteohub,2013-09-05 07:46:00,
2013-09-05 02:51:00,66.6,56.5,30.12,SSE,163,0.0,0.0,70,0.00,,,0.00,meteohub,2013-09-05 07:51:00,
2013-09-05 02:56:00,66.6,56.8,30.12,SSE,163,0.0,0.0,71,0.00,,,0.00,meteohub,2013-09-05 07:56:00,
2013-09-05 03:02:00,66.6,56.8,30.12,SSE,163,0.0,0.0,71,0.00,,,0.00,meteohub,2013-09-05 08:02:00,
2013-09-05 03:07:00,66.4,56.7,30.12,SSE,163,0.0,0.0,71,0.00,,,0.00,meteohub,2013-09-05 08:07:00,
2013-09-05 03:12:00,66.4,56.7,30.12,SSE,163,0.0,0.0,71,0.00,,,0.00,meteohub,2013-09-05 08:12:00,
2013-09-05 03:17:00,66.2,56.5,30.12,SSE,163,0.0,0.0,71,0.00,,,0.00,meteohub,2013-09-05 08:17:00,
2013-09-05 03:22:00,66.0,56.3,30.12,SSE,163,0.0,0.0,71,0.00,,,0.00,meteohub,2013-09-05 08:22:00,
2013-09-05 03:27:00,66.0,56.3,30.12,SSE,163,0.0,0.0,71,0.00,,,0.00,meteohub,2013-09-05 08:27:00,
2013-09-05 03:32:00,65.8,56.5,30.12,SSE,163,0.0,0.0,72,0.00,,,0.00,meteohub,2013-09-05 08:32:00,
2013-09-05 03:37:00,65.8,56.5,30.12,SSE,163,0.0,0.0,72,0.00,,,0.00,meteohub,2013-09-05 08:37:00,
2013-09-05 03:42:00,65.7,56.3,30.13,SSE,163,0.0,0.0,72,0.00,,,0.00,meteohub,2013-09-05 08:42:00,
2013-09-05 03:47:00,65.7,56.3,30.13,SSE,163,0.0,0.0,72,0.00,,,0.00,meteohub,2013-09-05 08:47:00,
2013-09-05 03:52:00,65.5,56.3,30.13,SSE,163,0.0,0.0,72,0.00,,,0.00,meteohub,2013-09-05 08:52:00,
2013-09-05 03:59:00,65.3,56.1,30.13,SSE,163,0.0,0.0,72,0.00,,,0.00,meteohub,2013-09-05 08:59:00,
2013-09-05 04:04:00,65.1,56.3,30.13,SSE,163,0.0,0.0,73,0.00,,,0.00,meteohub,2013-09-05 09:04:00,
2013-09-05 04:09:00,64.9,56.1,30.13,SSE,163,0.0,0.0,73,0.00,,,0.00,meteohub,2013-09-05 09:09:00,
2013-09-05 04:14:00,64.9,56.1,30.13,SSE,163,0.0,0.0,73,0.00,,,0.00,meteohub,2013-09-05 09:14:00,
2013-09-05 04:19:00,64.8,55.9,30.13,SSE,163,0.0,0.0,73,0.00,,,0.00,meteohub,2013-09-05 09:19:00,
2013-09-05 04:24:00,64.6,55.8,30.13,SSE,163,0.0,0.0,73,0.00,,,0.00,meteohub,2013-09-05 09:24:00,
2013-09-05 04:29:00,64.6,56.1,30.14,SSE,163,0.0,0.0,74,0.00,,,0.00,meteohub,2013-09-05 09:29:00,
2013-09-05 04:34:00,64.4,55.9,30.14,SSE,163,0.0,0.0,74,0.00,,,0.00,meteohub,2013-09-05 09:34:00,
2013-09-05 04:39:00,64.2,55.8,30.14,SSE,163,0.0,0.0,74,0.00,,,0.00,meteohub,2013-09-05 09:39:00,
2013-09-05 04:45:00,64.2,55.8,30.14,SSE,163,0.0,0.0,74,0.00,,,0.00,meteohub,2013-09-05 09:45:00,
2013-09-05 04:50:00,64.0,55.6,30.14,SSE,163,0.0,0.0,74,0.00,,,0.00,meteohub,2013-09-05 09:50:00,
2013-09-05 04:55:00,63.9,55.4,30.14,SSE,163,0.0,0.0,74,0.00,,,0.00,meteohub,2013-09-05 09:55:00,
2013-09-05 05:00:00,63.9,55.4,30.14,SSE,163,0.0,0.0,74,0.00,,,0.00,meteohub,2013-09-05 10:00:00,
2013-09-05 05:05:00,63.7,55.6,30.14,SSE,163,0.0,0.0,75,0.00,,,0.00,meteohub,2013-09-05 10:05:00,
2013-09-05 05:10:00,63.7,55.6,30.14,SSE,163,0.0,0.0,75,0.00,,,0.00,meteohub,2013-09-05 10:10:00,
2013-09-05 05:15:00,63.3,55.2,30.14,SSE,163,0.0,0.0,75,0.00,,,0.00,meteohub,2013-09-05 10:15:00,
2013-09-05 05:20:00,63.3,55.2,30.14,SSE,163,0.0,0.0,75,0.00,,,0.00,meteohub,2013-09-05 10:20:00,
2013-09-05 05:25:00,63.1,55.0,30.14,SSE,163,0.0,0.0,75,0.00,,,0.00,meteohub,2013-09-05 10:25:00,
2013-09-05 05:30:00,63.1,55.0,30.14,SSE,163,0.0,0.0,75,0.00,,,0.00,meteohub,2013-09-05 10:30:00,
2013-09-05 05:35:00,63.0,55.2,30.14,SSE,163,0.0,0.0,76,0.00,,,0.00,meteohub,2013-09-05 10:35:00,
2013-09-05 05:40:00,63.0,55.2,30.14,SSE,163,0.0,0.0,76,0.00,,,0.00,meteohub,2013-09-05 10:40:00,
2013-09-05 05:45:00,62.8,55.0,30.14,SSE,163,0.0,0.0,76,0.00,,,0.00,meteohub,2013-09-05 10:45:00,
2013-09-05 05:50:00,62.8,55.0,30.14,SSE,163,0.0,0.0,76,0.00,,,0.00,meteohub,2013-09-05 10:50:00,
2013-09-05 05:55:00,62.6,54.9,30.14,SSE,163,0.0,0.0,76,0.00,,,0.00,meteohub,2013-09-05 10:55:00,
2013-09-05 06:00:00,62.4,54.7,30.14,SSE,163,0.0,0.0,76,0.00,,,0.00,meteohub,2013-09-05 11:00:00,
2013-09-05 06:06:00,62.4,54.7,30.15,SSE,163,0.0,0.0,76,0.00,,,0.00,meteohub,2013-09-05 11:06:00,
2013-09-05 06:11:00,62.4,55.0,30.16,SSE,163,0.0,0.0,77,0.00,,,0.00,meteohub,2013-09-05 11:11:00,
2013-09-05 06:16:00,62.4,55.0,30.16,SSE,163,0.0,0.0,77,0.00,,,0.00,meteohub,2013-09-05 11:16:00,
2013-09-05 06:21:00,62.4,55.0,30.16,SSE,163,0.0,0.0,77,0.00,,,0.00,meteohub,2013-09-05 11:21:00,
2013-09-05 06:26:00,62.2,54.9,30.17,SSE,163,0.0,0.0,77,0.00,,,0.00,meteohub,2013-09-05 11:26:00,
2013-09-05 06:31:00,62.2,54.9,30.16,SSE,163,0.0,1.0,77,0.00,,,0.00,meteohub,2013-09-05 11:31:00,
2013-09-05 06:36:00,62.2,54.9,30.17,SSE,163,0.0,1.0,77,0.00,,,0.00,meteohub,2013-09-05 11:36:00,
2013-09-05 06:41:00,62.2,54.9,30.17,SSE,163,0.0,1.0,77,0.00,,,0.00,meteohub,2013-09-05 11:41:00,
2013-09-05 06:46:00,62.2,54.9,30.17,SSE,163,0.0,0.0,77,0.00,,,0.00,meteohub,2013-09-05 11:46:00,
2013-09-05 06:51:00,62.2,54.9,30.17,SSE,163,0.0,0.0,77,0.00,,,0.00,meteohub,2013-09-05 11:51:00,
2013-09-05 06:56:00,62.2,54.9,30.17,SSE,163,0.0,0.0,77,0.00,,,0.00,meteohub,2013-09-05 11:56:00,
2013-09-05 07:01:00,62.2,54.9,30.17,SSE,163,0.0,0.0,77,0.00,,,0.00,meteohub,2013-09-05 12:01:00,
2013-09-05 07:06:00,62.2,54.9,30.17,SSE,163,0.0,0.0,77,0.00,,,0.00,meteohub,2013-09-05 12:06:00,
2013-09-05 07:11:00,62.2,54.9,30.17,SSE,163,0.0,0.0,77,0.00,,,0.00,meteohub,2013-09-05 12:11:00,
2013-09-05 07:16:00,62.2,54.9,30.17,SSE,163,0.0,0.0,77,0.00,,,0.00,meteohub,2013-09-05 12:16:00,
2013-09-05 07:21:00,62.2,54.9,30.17,SSE,163,0.0,0.0,77,0.00,,,0.00,meteohub,2013-09-05 12:21:00,
2013-09-05 07:27:00,62.2,54.9,30.17,SSE,163,0.0,0.0,77,0.00,,,0.00,meteohub,2013-09-05 12:27:00,
2013-09-05 07:32:00,62.4,55.4,30.17,SSE,163,0.0,0.0,78,0.00,,,0.00,meteohub,2013-09-05 12:32:00,
2013-09-05 07:37:00,62.4,55.4,30.18,SSE,163,0.0,0.0,78,0.00,,,0.00,meteohub,2013-09-05 12:37:00,
2013-09-05 07:42:00,62.4,55.4,30.18,SSE,163,0.0,0.0,78,0.00,,,0.00,meteohub,2013-09-05 12:42:00,
2013-09-05 07:47:00,62.4,55.4,30.17,SSE,163,0.0,0.0,78,0.00,,,0.00,meteohub,2013-09-05 12:47:00,
2013-09-05 07:52:00,62.4,55.4,30.17,SSE,163,0.0,0.0,78,0.00,,,0.00,meteohub,2013-09-05 12:52:00,
2013-09-05 07:57:00,62.4,55.0,30.17,SSE,163,0.0,0.0,77,0.00,,,0.00,meteohub,2013-09-05 12:57:00,
2013-09-05 08:02:00,62.4,55.0,30.17,SSE,163,0.0,0.0,77,0.00,,,0.00,meteohub,2013-09-05 13:02:00,
2013-09-05 08:07:00,62.6,55.2,30.18,SSE,163,0.0,0.0,77,0.00,,,0.00,meteohub,2013-09-05 13:07:00,
2013-09-05 08:12:00,62.8,55.4,30.18,SW,227,0.0,0.0,77,0.00,,,0.00,meteohub,2013-09-05 13:12:00,
2013-09-05 08:17:00,62.8,55.4,30.18,SW,227,0.0,0.0,77,0.00,,,0.00,meteohub,2013-09-05 13:17:00,
2013-09-05 08:22:00,63.0,55.6,30.18,SW,234,0.0,0.0,77,0.00,,,0.00,meteohub,2013-09-05 13:22:00,
2013-09-05 08:27:00,63.0,55.6,30.18,SW,223,0.0,0.0,77,0.00,,,0.00,meteohub,2013-09-05 13:27:00,
2013-09-05 08:32:00,63.1,55.8,30.18,SW,223,0.0,0.0,77,0.00,,,0.00,meteohub,2013-09-05 13:32:00,
2013-09-05 08:37:00,63.3,55.9,30.18,SW,223,0.0,0.0,77,0.00,,,0.00,meteohub,2013-09-05 13:37:00,
2013-09-05 08:42:00,63.3,55.6,30.18,SW,223,0.0,1.0,76,0.00,,,0.00,meteohub,2013-09-05 13:42:00,
2013-09-05 08:47:00,63.7,55.9,30.18,SW,223,0.0,1.0,76,0.00,,,0.00,meteohub,2013-09-05 13:47:00,
2013-09-05 08:52:00,63.9,56.1,30.18,SW,223,0.0,1.0,76,0.00,,,0.00,meteohub,2013-09-05 13:52:00,
2013-09-05 08:57:00,63.9,56.1,30.18,WSW,240,0.0,0.0,76,0.00,,,0.00,meteohub,2013-09-05 13:57:00,
2013-09-05 09:02:00,64.0,56.3,30.18,WSW,238,0.0,1.0,76,0.00,,,0.00,meteohub,2013-09-05 14:02:00,
2013-09-05 09:07:00,64.2,56.5,30.18,WSW,237,0.0,1.0,76,0.00,,,0.00,meteohub,2013-09-05 14:07:00,
2013-09-05 09:12:00,64.4,56.3,30.18,SW,236,0.0,1.0,75,0.00,,,0.00,meteohub,2013-09-05 14:12:00,
2013-09-05 09:17:00,64.6,56.8,30.18,SW,236,0.0,0.0,76,0.00,,,0.00,meteohub,2013-09-05 14:17:00,
2013-09-05 09:22:00,64.8,56.7,30.18,SW,234,0.0,1.0,75,0.00,,,0.00,meteohub,2013-09-05 14:22:00,
2013-09-05 09:27:00,64.8,56.7,30.18,SW,233,0.0,1.0,75,0.00,,,0.00,meteohub,2013-09-05 14:27:00,
2013-09-05 09:32:00,64.8,56.7,30.18,SW,234,0.0,1.0,75,0.00,,,0.00,meteohub,2013-09-05 14:32:00,
2013-09-05 09:37:00,64.9,56.8,30.18,SW,234,0.0,0.0,75,0.00,,,0.00,meteohub,2013-09-05 14:37:00,
2013-09-05 09:42:00,65.1,57.0,30.18,SW,233,0.0,0.0,75,0.00,,,0.00,meteohub,2013-09-05 14:42:00,
2013-09-05 09:47:00,65.3,57.2,30.18,SW,234,0.0,0.0,75,0.00,,,0.00,meteohub,2013-09-05 14:47:00,
2013-09-05 09:52:00,65.5,57.4,30.18,SW,234,0.0,0.0,75,0.00,,,0.00,meteohub,2013-09-05 14:52:00,
2013-09-05 09:57:00,65.7,57.6,30.18,SW,234,0.0,0.0,75,0.00,,,0.00,meteohub,2013-09-05 14:57:00,
2013-09-05 10:02:00,65.8,57.7,30.19,SW,233,0.0,0.0,75,0.00,,,0.00,meteohub,2013-09-05 15:02:00,
2013-09-05 10:07:00,66.0,57.9,30.19,WSW,240,0.0,0.0,75,0.00,,,0.00,meteohub,2013-09-05 15:07:00,
2013-09-05 10:12:00,66.4,58.3,30.19,WSW,240,0.0,1.0,75,0.00,,,0.00,meteohub,2013-09-05 15:12:00,
2013-09-05 10:17:00,66.6,58.8,30.19,SW,235,0.0,1.0,76,0.00,,,0.00,meteohub,2013-09-05 15:17:00,
2013-09-05 10:22:00,66.7,58.6,30.19,WSW,246,0.0,1.0,75,0.00,,,0.00,meteohub,2013-09-05 15:22:00,
2013-09-05 10:27:00,66.9,58.8,30.19,SW,236,0.0,2.0,75,0.00,,,0.00,meteohub,2013-09-05 15:27:00,
2013-09-05 10:32:00,67.3,59.0,30.19,SW,236,0.0,2.0,75,0.00,,,0.00,meteohub,2013-09-05 15:32:00,
2013-09-05 10:37:00,67.5,59.2,30.19,SW,236,0.0,2.0,75,0.00,,,0.00,meteohub,2013-09-05 15:37:00,
2013-09-05 10:42:00,67.6,59.4,30.19,SW,236,0.0,0.0,75,0.00,,,0.00,meteohub,2013-09-05 15:42:00,
2013-09-05 10:47:00,68.0,59.7,30.19,SW,236,0.0,0.0,75,0.00,,,0.00,meteohub,2013-09-05 15:47:00,
2013-09-05 10:52:00,68.2,59.9,30.19,SW,236,0.0,1.0,75,0.00,,,0.00,meteohub,2013-09-05 15:52:00,
2013-09-05 10:57:00,68.5,59.9,30.18,SW,236,0.0,2.0,74,0.00,,,0.00,meteohub,2013-09-05 15:57:00,
2013-09-05 11:02:00,68.9,60.3,30.18,SW,232,0.0,2.0,74,0.00,,,0.00,meteohub,2013-09-05 16:02:00,
2013-09-05 11:07:00,69.1,60.4,30.18,SW,232,0.0,2.0,74,0.00,,,0.00,meteohub,2013-09-05 16:07:00,
2013-09-05 11:12:00,69.3,60.3,30.18,SW,232,0.0,1.0,73,0.00,,,0.00,meteohub,2013-09-05 16:12:00,
2013-09-05 11:17:00,69.6,60.6,30.18,WSW,238,0.0,1.0,73,0.00,,,0.00,meteohub,2013-09-05 16:17:00,
2013-09-05 11:22:00,70.0,61.0,30.18,WSW,238,0.0,1.0,73,0.00,,,0.00,meteohub,2013-09-05 16:22:00,
2013-09-05 11:27:00,70.2,61.2,30.18,SW,236,0.0,1.0,73,0.00,,,0.00,meteohub,2013-09-05 16:27:00,
2013-09-05 11:32:00,70.3,61.3,30.18,WSW,243,0.0,1.0,73,0.00,,,0.00,meteohub,2013-09-05 16:32:00,
2013-09-05 11:37:00,70.9,61.9,30.18,WSW,241,0.0,1.0,73,0.00,,,0.00,meteohub,2013-09-05 16:37:00,
2013-09-05 11:42:00,71.1,61.5,30.18,WSW,237,0.0,2.0,72,0.00,,,0.00,meteohub,2013-09-05 16:42:00,
2013-09-05 11:47:00,71.4,61.9,30.18,WSW,237,0.0,2.0,72,0.00,,,0.00,meteohub,2013-09-05 16:47:00,
2013-09-05 11:52:00,71.8,62.2,30.18,SW,236,0.0,1.0,72,0.00,,,0.00,meteohub,2013-09-05 16:52:00,
2013-09-05 11:57:00,72.1,62.6,30.18,SW,230,0.0,1.0,72,0.00,,,0.00,meteohub,2013-09-05 16:57:00,
2013-09-05 12:02:00,72.5,63.0,30.18,WSW,238,0.0,1.0,72,0.00,,,0.00,meteohub,2013-09-05 17:02:00,
2013-09-05 12:07:00,72.9,63.3,30.17,SW,235,0.0,3.0,72,0.00,,,0.00,meteohub,2013-09-05 17:07:00,
2013-09-05 12:12:00,73.2,63.3,30.17,WSW,240,0.0,3.0,71,0.00,,,0.00,meteohub,2013-09-05 17:12:00,
2013-09-05 12:17:00,73.6,63.7,30.17,WSW,240,0.0,3.0,71,0.00,,,0.00,meteohub,2013-09-05 17:17:00,
2013-09-05 12:22:00,73.8,63.3,30.17,SW,235,0.0,3.0,70,0.00,,,0.00,meteohub,2013-09-05 17:22:00,
2013-09-05 12:27:00,74.1,63.7,30.17,SW,234,0.0,1.0,70,0.00,,,0.00,meteohub,2013-09-05 17:27:00,
2013-09-05 12:32:00,74.5,63.7,30.17,SW,236,0.0,1.0,69,0.00,,,0.00,meteohub,2013-09-05 17:32:00,
2013-09-05 12:37:00,74.8,64.0,30.17,SW,236,0.0,1.0,69,0.00,,,0.00,meteohub,2013-09-05 17:37:00,
2013-09-05 12:42:00,75.2,64.4,30.17,SW,236,0.0,1.0,69,0.00,,,0.00,meteohub,2013-09-05 17:42:00,
2013-09-05 12:47:00,75.6,63.9,30.17,SW,234,0.0,1.0,67,0.00,,,0.00,meteohub,2013-09-05 17:47:00,
2013-09-05 12:52:00,75.9,64.2,30.17,SW,234,0.0,1.0,67,0.00,,,0.00,meteohub,2013-09-05 17:52:00,
2013-09-05 12:57:00,76.5,64.2,30.17,SW,233,0.0,1.0,66,0.00,,,0.00,meteohub,2013-09-05 17:57:00,
2013-09-05 13:02:00,76.8,64.2,30.16,SW,232,0.0,1.0,65,0.00,,,0.00,meteohub,2013-09-05 18:02:00,
2013-09-05 13:07:00,77.4,64.8,30.16,SW,232,0.0,1.0,65,0.00,,,0.00,meteohub,2013-09-05 18:07:00,
2013-09-05 13:12:00,77.7,64.9,30.16,SW,236,0.0,1.0,65,0.00,,,0.00,meteohub,2013-09-05 18:12:00,
2013-09-05 13:17:00,78.3,65.1,30.16,SW,234,0.0,1.0,64,0.00,,,0.00,meteohub,2013-09-05 18:17:00,
2013-09-05 13:22:00,78.8,65.1,30.15,SW,235,0.0,1.0,63,0.00,,,0.00,meteohub,2013-09-05 18:22:00,
2013-09-05 13:27:00,79.3,64.8,30.15,SW,235,0.0,1.0,61,0.00,,,0.00,meteohub,2013-09-05 18:27:00,
2013-09-05 13:32:00,79.9,64.2,30.15,SW,229,0.0,1.0,59,0.00,,,0.00,meteohub,2013-09-05 18:32:00,
2013-09-05 13:37:00,80.2,64.6,30.15,SW,230,0.0,1.0,59,0.00,,,0.00,meteohub,2013-09-05 18:37:00,
2013-09-05 13:42:00,80.6,64.9,30.14,SW,226,0.0,1.0,59,0.00,,,0.00,meteohub,2013-09-05 18:42:00,
2013-09-05 13:47:00,81.1,65.5,30.14,WSW,240,0.0,1.0,59,0.00,,,0.00,meteohub,2013-09-05 18:47:00,
2013-09-05 13:52:00,81.7,65.5,30.14,WSW,251,0.0,3.0,58,0.00,,,0.00,meteohub,2013-09-05 18:52:00,
2013-09-05 13:57:00,82.2,66.0,30.14,SW,233,0.0,3.0,58,0.00,,,0.00,meteohub,2013-09-05 18:57:00,
2013-09-05 14:02:00,82.8,66.0,30.14,WSW,248,0.0,2.0,57,0.00,,,0.00,meteohub,2013-09-05 19:02:00,
2013-09-05 14:07:00,83.5,66.6,30.14,WSW,244,1.0,3.0,57,0.00,,,0.00,meteohub,2013-09-05 19:07:00,
2013-09-05 14:12:00,84.0,66.2,30.13,WSW,239,0.0,3.0,55,0.00,,,0.00,meteohub,2013-09-05 19:12:00,
2013-09-05 14:17:00,84.4,66.4,30.13,WSW,242,0.0,3.0,55,0.00,,,0.00,meteohub,2013-09-05 19:17:00,
2013-09-05 14:22:00,84.6,66.6,30.13,WSW,241,2.0,2.0,55,0.00,,,0.00,meteohub,2013-09-05 19:22:00,
2013-09-05 14:27:00,84.7,66.2,30.13,SSE,165,0.0,2.0,54,0.00,,,0.00,meteohub,2013-09-05 19:27:00,
2013-09-05 14:32:00,84.9,66.9,30.13,WSW,241,0.0,3.0,55,0.00,,,0.00,meteohub,2013-09-05 19:32:00,
2013-09-05 14:37:00,85.3,66.2,30.13,WSW,254,0.0,3.0,53,0.00,,,0.00,meteohub,2013-09-05 19:37:00,
2013-09-05 14:42:00,84.9,65.8,30.12,WSW,252,0.0,3.0,53,0.00,,,0.00,meteohub,2013-09-05 19:42:00,
2013-09-05 14:47:00,84.9,66.4,30.12,WSW,251,0.0,1.0,54,0.00,,,0.00,meteohub,2013-09-05 19:47:00,
2013-09-05 14:52:00,85.1,67.1,30.12,WSW,248,0.0,1.0,55,0.00,,,0.00,meteohub,2013-09-05 19:52:00,
2013-09-05 14:57:00,85.5,66.9,30.12,WSW,247,0.0,1.0,54,0.00,,,0.00,meteohub,2013-09-05 19:57:00,
2013-09-05 15:02:00,85.6,67.1,30.12,WSW,253,0.0,1.0,54,0.00,,,0.00,meteohub,2013-09-05 20:02:00,
2013-09-05 15:07:00,85.8,67.3,30.11,WSW,254,0.0,1.0,54,0.00,,,0.00,meteohub,2013-09-05 20:07:00,
2013-09-05 15:12:00,85.8,67.3,30.11,WSW,258,0.0,3.0,54,0.00,,,0.00,meteohub,2013-09-05 20:12:00,
2013-09-05 15:17:00,86.2,68.2,30.11,WSW,257,0.0,3.0,55,0.00,,,0.00,meteohub,2013-09-05 20:17:00,
2013-09-05 15:22:00,86.4,68.4,30.11,WSW,240,0.0,3.0,55,0.00,,,0.00,meteohub,2013-09-05 20:22:00,
2013-09-05 15:27:00,86.4,67.8,30.11,WSW,237,0.0,2.0,54,0.00,,,0.00,meteohub,2013-09-05 20:27:00,
2013-09-05 15:32:00,86.5,68.0,30.11,WSW,237,0.0,2.0,54,0.00,,,0.00,meteohub,2013-09-05 20:32:00,
2013-09-05 15:37:00,86.7,68.5,30.10,SW,234,0.0,1.0,55,0.00,,,0.00,meteohub,2013-09-05 20:37:00,
2013-09-05 15:42:00,87.1,68.9,30.10,SW,234,0.0,1.0,55,0.00,,,0.00,meteohub,2013-09-05 20:42:00,
2013-09-05 15:47:00,87.1,68.9,30.10,West,275,0.0,1.0,55,0.00,,,0.00,meteohub,2013-09-05 20:47:00,
2013-09-05 15:52:00,86.9,68.2,30.10,WNW,300,0.0,1.0,54,0.00,,,0.00,meteohub,2013-09-05 20:52:00,
2013-09-05 15:57:00,86.9,68.7,30.10,NW,325,0.0,2.0,55,0.00,,,0.00,meteohub,2013-09-05 20:57:00,
2013-09-05 16:02:00,86.7,68.5,30.10,North,350,0.0,3.0,55,0.00,,,0.00,meteohub,2013-09-05 21:02:00,
2013-09-05 16:07:00,86.7,69.1,30.10,North,350,0.0,3.0,56,0.00,,,0.00,meteohub,2013-09-05 21:07:00,
2013-09-05 16:12:00,86.5,68.4,30.10,NNW,339,0.0,3.0,55,0.00,,,0.00,meteohub,2013-09-05 21:12:00,
2013-09-05 16:17:00,86.5,68.9,30.10,North,355,0.0,1.0,56,0.00,,,0.00,meteohub,2013-09-05 21:17:00,
2013-09-05 16:22:00,86.4,68.7,30.10,North,355,0.0,1.0,56,0.00,,,0.00,meteohub,2013-09-05 21:22:00,
2013-09-05 16:27:00,86.2,68.7,30.10,NNW,348,0.0,1.0,56,0.00,,,0.00,meteohub,2013-09-05 21:27:00,
2013-09-05 16:32:00,86.0,68.5,30.10,North,350,1.0,1.0,56,0.00,,,0.00,meteohub,2013-09-05 21:32:00,
2013-09-05 16:37:00,85.8,68.4,30.09,North,355,0.0,2.0,56,0.00,,,0.00,meteohub,2013-09-05 21:37:00,
2013-09-05 16:42:00,85.6,68.7,30.09,North,355,0.0,2.0,57,0.00,,,0.00,meteohub,2013-09-05 21:42:00,
2013-09-05 16:47:00,85.5,68.5,30.09,NNW,348,0.0,2.0,57,0.00,,,0.00,meteohub,2013-09-05 21:47:00,
2013-09-05 16:52:00,85.3,68.9,30.09,NNW,348,0.0,2.0,58,0.00,,,0.00,meteohub,2013-09-05 21:52:00,
2013-09-05 16:57:00,85.3,69.3,30.09,NNW,341,0.0,2.0,59,0.00,,,0.00,meteohub,2013-09-05 21:57:00,
2013-09-05 17:02:00,84.9,68.9,30.09,NNW,342,0.0,2.0,59,0.00,,,0.00,meteohub,2013-09-05 22:02:00,
2013-09-05 17:07:00,84.7,68.9,30.09,NNW,342,0.0,1.0,59,0.00,,,0.00,meteohub,2013-09-05 22:07:00,
2013-09-05 17:12:00,84.6,68.7,30.09,NNW,342,0.0,1.0,59,0.00,,,0.00,meteohub,2013-09-05 22:12:00,
2013-09-05 17:17:00,84.4,68.9,30.09,NNW,343,0.0,1.0,60,0.00,,,0.00,meteohub,2013-09-05 22:17:00,
2013-09-05 17:22:00,84.0,69.1,30.09,NNW,342,0.0,1.0,61,0.00,,,0.00,meteohub,2013-09-05 22:22:00,
2013-09-05 17:27:00,83.8,68.9,30.09,NNW,340,0.0,1.0,61,0.00,,,0.00,meteohub,2013-09-05 22:27:00,
2013-09-05 17:32:00,83.7,69.3,30.09,NNW,342,0.0,1.0,62,0.00,,,0.00,meteohub,2013-09-05 22:32:00,
2013-09-05 17:37:00,83.5,69.1,30.09,NNE,28,0.0,1.0,62,0.00,,,0.00,meteohub,2013-09-05 22:37:00,
2013-09-05 17:42:00,83.1,68.7,30.09,NNE,29,0.0,1.0,62,0.00,,,0.00,meteohub,2013-09-05 22:42:00,
2013-09-05 17:47:00,83.1,68.7,30.09,NNE,29,0.0,1.0,62,0.00,,,0.00,meteohub,2013-09-05 22:47:00,
2013-09-05 17:52:00,82.8,68.4,30.08,North,0,0.0,1.0,62,0.00,,,0.00,meteohub,2013-09-05 22:52:00,
2013-09-05 17:57:00,82.8,68.9,30.08,North,0,0.0,1.0,63,0.00,,,0.00,meteohub,2013-09-05 22:57:00,
2013-09-05 18:02:00,82.6,68.7,30.08,North,0,0.0,1.0,63,0.00,,,0.00,meteohub,2013-09-05 23:02:00,
2013-09-05 18:07:00,82.2,68.9,30.09,North,0,0.0,1.0,64,0.00,,,0.00,meteohub,2013-09-05 23:07:00,
2013-09-05 18:12:00,82.2,68.9,30.09,North,0,0.0,1.0,64,0.00,,,0.00,meteohub,2013-09-05 23:12:00,
2013-09-05 18:17:00,82.0,68.7,30.08,North,0,0.0,0.0,64,0.00,,,0.00,meteohub,2013-09-05 23:17:00,
2013-09-05 18:22:00,81.9,68.9,30.08,North,0,0.0,0.0,65,0.00,,,0.00,meteohub,2013-09-05 23:22:00,
2013-09-05 18:27:00,81.9,68.9,30.08,North,0,0.0,0.0,65,0.00,,,0.00,meteohub,2013-09-05 23:27:00,
2013-09-05 18:32:00,81.7,68.7,30.08,North,0,0.0,0.0,65,0.00,,,0.00,meteohub,2013-09-05 23:32:00,
2013-09-05 18:37:00,81.3,68.9,30.08,North,0,0.0,0.0,66,0.00,,,0.00,meteohub,2013-09-05 23:37:00,
2013-09-05 18:42:00,81.3,68.9,30.08,North,0,0.0,0.0,66,0.00,,,0.00,meteohub,2013-09-05 23:42:00,
2013-09-05 18:47:00,81.1,68.7,30.08,North,0,0.0,0.0,66,0.00,,,0.00,meteohub,2013-09-05 23:47:00,
2013-09-05 18:52:00,81.0,68.9,30.08,North,0,0.0,1.0,67,0.00,,,0.00,meteohub,2013-09-05 23:52:00,
2013-09-05 18:57:00,80.8,68.7,30.08,North,0,0.0,1.0,67,0.00,,,0.00,meteohub,2013-09-05 23:57:00,
2013-09-05 19:02:00,80.4,68.5,30.08,North,0,0.0,1.0,67,0.00,,,0.00,meteohub,2013-09-06 00:02:00,
2013-09-05 19:07:00,80.2,68.4,30.08,North,0,0.0,0.0,67,0.00,,,0.00,meteohub,2013-09-06 00:07:00,
2013-09-05 19:12:00,80.1,68.5,30.08,North,0,0.0,0.0,68,0.00,,,0.00,meteohub,2013-09-06 00:12:00,
2013-09-05 19:17:00,79.9,68.4,30.08,North,0,0.0,0.0,68,0.00,,,0.00,meteohub,2013-09-06 00:17:00,
2013-09-05 19:22:00,79.5,68.0,30.08,North,355,0.0,0.0,68,0.00,,,0.00,meteohub,2013-09-06 00:22:00,
2013-09-05 19:27:00,79.3,67.8,30.08,NNW,346,0.0,0.0,68,0.00,,,0.00,meteohub,2013-09-06 00:27:00,
2013-09-05 19:32:00,79.2,67.6,30.08,NNW,346,0.0,0.0,68,0.00,,,0.00,meteohub,2013-09-06 00:32:00,
2013-09-05 19:37:00,79.0,68.0,30.08,NNW,346,0.0,0.0,69,0.00,,,0.00,meteohub,2013-09-06 00:37:00,
2013-09-05 19:42:00,78.6,67.6,30.08,NNW,345,0.0,0.0,69,0.00,,,0.00,meteohub,2013-09-06 00:42:00,
2013-09-05 19:47:00,78.4,67.5,30.08,NNW,346,0.0,0.0,69,0.00,,,0.00,meteohub,2013-09-06 00:47:00,
2013-09-05 19:52:00,78.3,67.6,30.08,NNW,345,0.0,0.0,70,0.00,,,0.00,meteohub,2013-09-06 00:52:00,
2013-09-05 19:57:00,77.9,67.3,30.08,NNW,345,0.0,0.0,70,0.00,,,0.00,meteohub,2013-09-06 00:57:00,
2013-09-05 20:02:00,77.7,67.1,30.08,NNW,346,0.0,0.0,70,0.00,,,0.00,meteohub,2013-09-06 01:02:00,
2013-09-05 20:07:00,77.5,66.9,30.08,NNW,346,0.0,0.0,70,0.00,,,0.00,meteohub,2013-09-06 01:07:00,
2013-09-05 20:12:00,77.4,67.3,30.08,NNW,346,0.0,0.0,71,0.00,,,0.00,meteohub,2013-09-06 01:12:00,
2013-09-05 20:17:00,77.2,67.1,30.08,NNW,346,0.0,0.0,71,0.00,,,0.00,meteohub,2013-09-06 01:17:00,
2013-09-05 20:22:00,76.8,66.7,30.08,NNW,346,0.0,0.0,71,0.00,,,0.00,meteohub,2013-09-06 01:22:00,
2013-09-05 20:27:00,76.6,66.6,30.09,NNW,346,0.0,0.0,71,0.00,,,0.00,meteohub,2013-09-06 01:27:00,
2013-09-05 20:32:00,76.5,66.7,30.08,NNW,345,0.0,0.0,72,0.00,,,0.00,meteohub,2013-09-06 01:32:00,
2013-09-05 20:37:00,76.3,66.6,30.09,NNW,345,0.0,0.0,72,0.00,,,0.00,meteohub,2013-09-06 01:37:00,
2013-09-05 20:42:00,76.3,66.6,30.09,NNW,346,0.0,0.0,72,0.00,,,0.00,meteohub,2013-09-06 01:42:00,
2013-09-05 20:47:00,75.9,66.2,30.09,NNW,346,0.0,0.0,72,0.00,,,0.00,meteohub,2013-09-06 01:47:00,
2013-09-05 20:52:00,75.7,66.4,30.09,NNW,346,0.0,0.0,73,0.00,,,0.00,meteohub,2013-09-06 01:52:00,
2013-09-05 20:57:00,75.7,66.4,30.09,NNW,346,0.0,0.0,73,0.00,,,0.00,meteohub,2013-09-06 01:57:00,
2013-09-05 21:02:00,75.6,66.4,30.09,NNW,346,0.0,0.0,73,0.00,,,0.00,meteohub,2013-09-06 02:02:00,
2013-09-05 21:07:00,75.4,66.2,30.09,NNW,345,0.0,0.0,73,0.00,,,0.00,meteohub,2013-09-06 02:07:00,
2013-09-05 21:12:00,75.4,66.6,30.09,NNW,345,0.0,0.0,74,0.00,,,0.00,meteohub,2013-09-06 02:12:00,
2013-09-05 21:17:00,75.2,66.4,30.09,NNW,346,0.0,0.0,74,0.00,,,0.00,meteohub,2013-09-06 02:17:00,
2013-09-05 21:22:00,75.0,66.2,30.09,NNW,345,0.0,0.0,74,0.00,,,0.00,meteohub,2013-09-06 02:22:00,
2013-09-05 21:27:00,74.8,66.0,30.09,NNW,346,0.0,0.0,74,0.00,,,0.00,meteohub,2013-09-06 02:27:00,
2013-09-05 21:32:00,74.8,66.4,30.09,NNW,345,0.0,0.0,75,0.00,,,0.00,meteohub,2013-09-06 02:32:00,
2013-09-05 21:37:00,74.7,66.2,30.09,NNW,346,0.0,0.0,75,0.00,,,0.00,meteohub,2013-09-06 02:37:00,
2013-09-05 21:42:00,74.5,66.0,30.09,NNW,346,0.0,0.0,75,0.00,,,0.00,meteohub,2013-09-06 02:42:00,
2013-09-05 21:47:00,74.5,66.0,30.08,NNW,346,0.0,0.0,75,0.00,,,0.00,meteohub,2013-09-06 02:47:00,
2013-09-05 21:52:00,74.5,66.4,30.08,NNW,345,0.0,0.0,76,0.00,,,0.00,meteohub,2013-09-06 02:52:00,
2013-09-05 21:57:00,74.1,66.0,30.08,NNW,346,0.0,1.0,76,0.00,,,0.00,meteohub,2013-09-06 02:57:00,
2013-09-05 22:02:00,74.1,66.0,30.08,NNW,346,0.0,1.0,76,0.00,,,0.00,meteohub,2013-09-06 03:02:00,
2013-09-05 22:07:00,74.1,66.0,30.08,NNW,345,0.0,1.0,76,0.00,,,0.00,meteohub,2013-09-06 03:07:00,
2013-09-05 22:12:00,73.9,65.8,30.07,NNW,345,0.0,0.0,76,0.00,,,0.00,meteohub,2013-09-06 03:12:00,
2013-09-05 22:17:00,73.9,66.2,30.07,NNW,343,0.0,0.0,77,0.00,,,0.00,meteohub,2013-09-06 03:17:00,
2013-09-05 22:22:00,73.9,66.2,30.08,NNW,347,0.0,1.0,77,0.00,,,0.00,meteohub,2013-09-06 03:22:00,
2013-09-05 22:27:00,73.8,66.0,30.08,North,355,0.0,1.0,77,0.00,,,0.00,meteohub,2013-09-06 03:27:00,
2013-09-05 22:32:00,73.8,66.4,30.08,North,350,0.0,1.0,78,0.00,,,0.00,meteohub,2013-09-06 03:32:00,
2013-09-05 22:37:00,73.8,66.4,30.08,North,350,0.0,1.0,78,0.00,,,0.00,meteohub,2013-09-06 03:37:00,
2013-09-05 22:42:00,73.8,66.4,30.08,North,350,0.0,1.0,78,0.00,,,0.00,meteohub,2013-09-06 03:42:00,
2013-09-05 22:47:00,73.6,66.4,30.07,North,350,0.0,0.0,78,0.00,,,0.00,meteohub,2013-09-06 03:47:00,
2013-09-05 22:52:00,73.6,66.4,30.07,North,350,0.0,0.0,78,0.00,,,0.00,meteohub,2013-09-06 03:52:00,
2013-09-05 22:57:00,73.4,66.2,30.07,North,350,0.0,1.0,78,0.00,,,0.00,meteohub,2013-09-06 03:57:00,
2013-09-05 23:01:00,73.2,66.0,30.07,North,350,0.0,1.0,78,0.00,,,0.00,meteohub,2013-09-06 04:01:00,
2013-09-05 23:02:00,73.2,66.0,30.07,North,350,0.0,1.0,78,0.00,,,0.00,meteohub,2013-09-06 04:02:00,
2013-09-05 23:03:00,73.2,66.0,30.07,North,350,0.0,1.0,78,0.00,,,0.00,meteohub,2013-09-06 04:03:00,
2013-09-05 23:04:00,73.2,66.0,30.07,North,350,0.0,1.0,78,0.00,,,0.00,meteohub,2013-09-06 04:04:00,
2013-09-05 23:10:00,73.2,66.4,30.07,North,350,0.0,0.0,79,0.00,,,0.00,meteohub,2013-09-06 04:10:00,
2013-09-05 23:15:00,73.0,66.2,30.07,North,0,0.0,0.0,79,0.00,,,0.00,meteohub,2013-09-06 04:15:00,
2013-09-05 23:20:00,73.0,66.2,30.06,North,0,0.0,1.0,79,0.00,,,0.00,meteohub,2013-09-06 04:20:00,
2013-09-05 23:25:00,72.9,66.0,30.06,North,0,0.0,1.0,79,0.00,,,0.00,meteohub,2013-09-06 04:25:00,
2013-09-05 23:30:00,72.9,66.4,30.06,North,0,0.0,0.0,80,0.00,,,0.00,meteohub,2013-09-06 04:30:00,
2013-09-05 23:35:00,72.9,66.4,30.06,North,0,0.0,0.0,80,0.00,,,0.00,meteohub,2013-09-06 04:35:00,
2013-09-05 23:40:00,72.7,66.2,30.06,North,0,0.0,0.0,80,0.00,,,0.00,meteohub,2013-09-06 04:40:00,
2013-09-05 23:45:00,72.7,66.2,30.06,North,0,0.0,2.0,80,0.00,,,0.00,meteohub,2013-09-06 04:45:00,
2013-09-05 23:50:00,72.7,66.6,30.06,NE,46,0.0,2.0,81,0.00,,,0.00,meteohub,2013-09-06 04:50:00,
2013-09-05 23:55:00,72.5,66.4,30.06,NE,46,0.0,2.0,81,0.00,,,0.00,meteohub,2013-09-06 04:55:00,